Regional Weather Roundup
Issued by NWS

Home | Current Version | Previous Version | Text Only | Print | Product List | Glossary On
Versions: 1 2 3 4 5 6 7 8 9 10 11 12 13 14 15 16 17 18 19 20 21 22 23 24 25 26 27
000
ASUS45 KREV 290510
RWRNV
NEVADA REGIONAL WEATHER ROUNDUP
NATIONAL WEATHER SERVICE RENO NV
1000 PM PDT SAT MAY 28 2016

NOTE: "FAIR" INDICATES FEW OR NO CLOUDS BELOW 12,000 FEET WITH NO
SIGNIFICANT WEATHER AND/OR OBSTRUCTIONS TO VISIBILITY.

NVZ001-003-004-290600-
WESTERN NEVADA

CITY           SKY/WX    TMP DP  RH WIND       PRES   REMARKS
RENO           MOCLDY    65  38  36 S7        30.01R
CARSON CITY    FAIR      59  37  44 CALM      30.06R
MINDEN         FAIR      48  45  87 E6        30.05R
SLIDE MTN        N/A     43  28  56 W2          N/A
FALLON         PTCLDY    63  35  35 SE6       29.99R
LOVELOCK       PTCLDY    67  35  30 SW7       29.97R
HAWTHORNE      CLEAR     64  36  34 SE8       30.02R
$$

NVZ002-CAZ072-073-290600-
NORTHERN AND CENTRAL SIERRA

CITY           SKY/WX    TMP DP  RH WIND       PRES   REMARKS
S. LAKE TAHOE  CLOUDY    52  39  61 CALM      30.10R
TRUCKEE        MOCLDY    54  37  54 E5        30.10R
SQUAW VLY 8000 NOT AVBL
SUSANVILLE     CLEAR     57  41  54 W7        30.00R
MAMMOTH LAKES  FAIR      47  41  80 CALM      30.20S
BRIDGEPORT     FAIR      44  38  79 CALM      30.14R
$$

NVZ030-031-036-290600-
NORTHERN NEVADA

CITY           SKY/WX    TMP DP  RH WIND       PRES   REMARKS
ELKO           PTCLDY    59  42  53 CALM      30.07R
WINNEMUCCA     PTCLDY    50  25  37 W6        30.01R
WENDOVER       CLOUDY    64  43  45 NE5       30.05R
$$

NVZ035-037-290600-
CENTRAL NEVADA

CITY           SKY/WX    TMP DP  RH WIND       PRES   REMARKS
ELY            MOCLDY    52  41  66 N17       30.14R
EUREKA           N/A     50  42  74 N3        30.12R
$$

NVZ013-014-290600-
SOUTH CENTRAL NEVADA

CITY           SKY/WX    TMP DP  RH WIND       PRES   REMARKS
TONOPAH        MOCLDY    59  37  44 N8        30.07R
$$

NVZ017-020-022-290600-
SOUTHERN NEVADA

CITY           SKY/WX    TMP DP  RH WIND       PRES   REMARKS
LAS VEGAS      CLEAR     81  24  12 SW6       29.80R
N. LAS VEGAS   PTCLDY    82  28  14 SW3       29.83R
NELLIS AFB     PTCLDY    80  30  16 CALM      29.81R
HENDERSON      CLEAR     78  27  15 SW10      29.88R
MERCURY        PTCLDY    69  23  17 NE5       29.90R
$$




USA.gov is the U.S. government's official web portal to all federal, state and local government web resources and services.